Location: *
(40.7251°S, 106.7546°E)
Time: 07:08:08
(UTC+00:00)

Daily predictions for brighter satellites

Satellite Brightness Start Highest point End
(mag) Time Altitude Azimuth Time Altitude Azimuth Time Altitude Azimuth
Cosmos 1818 4.4 12:07:09 10° NW 12:12:27 58° SW 12:17:49 10° SSE
Meteor 1-5 Rocket 4.3 12:07:18 10° S 12:12:38 51° ESE 12:17:48 10° NNE
Cosmos 1869 Rocket 4.0 12:10:54 10° SSW 12:15:28 72° W 12:19:57 10° N
COSMOS 2406 3.9 12:09:51 10° NNW 12:15:35 65° WSW 12:21:25 10° SSE
STARLINK-1140 3.1 12:12:49 10° SW 12:16:16 82° SE 12:19:40 10° NE
Cosmos 2369 4.1 12:12:20 10° SSW 12:17:57 50° ESE 12:23:31 10° NE
STARLINK-1156 3.1 12:15:18 10° SW 12:18:45 86° SE 12:22:09 10° NE
Cosmos 1536 4.0 12:16:45 10° SSE 12:20:07 24° ESE 12:23:25 10° NE
STARLINK-1148 3.1 12:17:49 10° SW 12:21:16 90° NW 12:24:41 10° NE
CSL-04 Debris 4.2 12:17:40 10° SSE 12:23:06 64° ENE 12:28:29 10° N
STARLINK-1158 3.1 12:20:18 10° SW 12:23:45 85° NW 12:27:10 10° NE
STARLINK-1179 3.2 12:21:46 10° WSW 12:24:32 53° NW 12:27:15 10° NE
NOAA 11 4.2 12:19:10 10° SSE 12:24:47 78° ENE 12:30:17 10° N
STARLINK-1176 3.2 12:22:18 10° WSW 12:25:04 52° NW 12:27:46 10° NE
ATLAS 5 CENTAUR R/B 2.8 12:19:20 10° NNW 12:26:23 60° ENE 12:32:58 10° SE
YAOGAN 1 2.7 12:23:41 10° SSE 12:28:07 88° W 12:32:29 10° NNW
SL-8 R/B 4.1 12:24:03 10° WNW 12:28:52 68° SSW 12:33:42 10° ESE
Cosmos 1733 Rocket 3.4 12:24:49 10° S 12:29:13 48° E 12:33:33 10° NNE
SAR-Lupe-2 3.8 12:25:41 10° N 12:29:18 75° WNW 12:32:58 10° SSW
USA 186 3.4 12:29:11 10° E 12:29:11 10° E 12:29:11 10° E
Cosmos 2322 Rocket 4.3 12:28:28 10° SSE 12:29:32 10° SE 12:30:36 10° SE
Atlas Centaur 2 3.0 12:27:14 10° NW 12:29:42 17° N 12:32:20 10° NE
Meteor 1-11 Rocket 4.0 12:25:09 10° S 12:31:08 60° ESE 12:36:56 10° NNE
Cosmos 1634 Rocket 4.2 12:25:10 10° S 12:31:18 53° E 12:37:24 10° NNE
CZ-4 R/B 2.3 12:27:32 10° S 12:31:38 57° WSW 12:35:45 10° NNW
Cosmos 1939 Rocket 3.0 12:29:20 10° S 12:33:22 82° WSW 12:37:24 10° NNW
Cosmos 1503 Rocket 4.0 12:28:30 10° N 12:33:35 60° ENE 12:38:44 10° SSE
Cosmos 1500 3.1 12:30:00 10° S 12:33:49 68° E 12:37:35 10° NNE
Cosmos 2082 Rocket 2.2 12:29:14 10° N 12:34:53 66° ENE 12:40:37 10° SSE
Cosmos 1862 Rocket 3.7 12:32:22 10° N 12:36:44 56° E 12:41:11 10° SSE
NOSS 3-4 (A) 4.1 12:31:11 10° SW 12:38:02 60° WNW 12:44:12 10° NNE
NOSS 3-4 (C) 4.1 12:31:15 10° SW 12:38:06 61° WNW 12:44:17 10° NNE
Cosmos 1707 Rocket 4.4 12:35:16 10° NNW 12:39:42 58° W 12:44:10 10° S
Tsikada Rocket 4.3 12:34:20 10° NNW 12:40:46 76° W 12:47:13 10° S
ERBS 4.3 12:41:14 10° WNW 12:44:18 31° SW 12:47:26 10° SSE
Cosmos 1833 Rocket 3.1 12:38:49 10° NNW 12:44:25 68° WSW 12:50:04 10° SSE
SL-24 R/B - RUBIN 2 4.2 12:38:52 10° NW 12:44:34 80° SW 12:49:34 10° SSE
CZ-3B R/B 3.4 12:43:27 10° WSW 12:46:13 18° WNW 12:47:52 10° NNW
Cosmos 1812 3.1 12:43:34 10° NNW 12:47:27 68° W 12:51:23 10° S
H-2A R/B 2.6 12:45:50 10° SSE 12:50:25 34° E 12:55:01 10° NNE
CZ-2C R/B 3.1 12:45:23 10° N 12:50:35 63° W 12:55:48 10° SSW
Ariane Rocket 3.2 12:45:38 10° SSE 12:50:37 49° E 12:55:33 10° N
STARLINK-1162 4.0 12:47:30 10° WSW 12:50:44 42° NW 12:53:17 14° NNE
HJ-1C 3.3 12:47:58 10° SSE 12:51:27 85° ENE 12:54:50 10° N
STARLINK-1157 4.1 12:49:45 10° WSW 12:52:57 39° NW 12:55:25 15° NNE
Cosmos 1703 Rocket 4.5 12:49:55 12° NNE 12:53:26 30° E 12:57:21 10° SSE
MONITOR-E 4.4 12:52:02 10° SSE 12:54:38 36° E 12:56:03 20° NNE
STARLINK-1159 4.2 12:52:10 10° WSW 12:55:20 37° NW 12:57:44 15° NNE
Meteor 1-27 Rocket 3.9 12:51:31 10° N 12:57:22 84° W 13:03:23 10° S
Cosmos 1697 Rocket 2.8 12:52:03 10° SSW 12:57:45 80° WNW 13:03:22 10° NNE
STARLINK-1171 4.3 12:54:39 10° WSW 12:57:47 35° NW 13:00:06 15° NNE
STARLINK-1155 4.4 12:57:00 10° WSW 13:00:05 33° NW 13:02:20 16° NNE
Cosmos 1441 Rocket 4.2 12:58:43 10° SSW 13:02:23 47° W 13:06:01 10° N
STARLINK-1166 4.5 12:59:29 10° WSW 13:02:32 32° NW 13:04:41 16° N
GPS 2-05 Rocket1 3.7 13:01:13 10° WNW 13:03:04 20° N 13:03:07 20° N
COSMOS 2455 4.0 12:58:03 10° SW 13:03:40 41° WNW 13:09:14 10° N
Okean 1-7 3.8 13:01:59 19° NE 13:04:23 33° E 13:08:24 10° SSE
Cosmos 1980 Rocket 2.3 12:59:03 10° SSW 13:04:47 65° ESE 13:08:52 19° NE
CZ-2C R/B 3.6 13:00:18 10° SSE 13:05:25 42° E 13:10:42 10° NNE
Cosmos 405 4.5 13:08:48 21° ESE 13:08:48 21° ESE 13:11:00 10° SE
Cosmos 1666 2.6 13:04:53 10° S 13:08:44 73° E 13:11:20 19° NNE
ATLAS 2AS CENTAUR R/B 4.2 13:03:10 10° SW 13:09:05 33° WNW 13:15:24 10° N
Resurs 01 Rocket 3.6 13:07:02 10° SE 13:08:28 14° ESE 13:08:28 14° ESE
GP-B 3.3 13:06:14 10° SSE 13:10:37 49° E 13:13:25 21° NNE
Shenzhou-11 Module 2.5 13:08:53 10° W 13:11:25 37° NNW 13:11:51 34° N
MOS 1 Rocket 4.4 13:08:44 10° N 13:13:30 48° W 13:18:37 10° SSW
SJ-6B 2.9 13:13:52 10° SSE 13:17:47 51° E 13:19:45 25° NNE
DELTA 2 R/B (1) 3.8 13:12:29 10° W 13:18:03 62° NNW 13:20:57 28° NE
Okean 1 3.8 13:17:53 34° ENE 13:18:41 38° E 13:22:27 10° SSE
Cosmos 1908 Rocket 3.5 13:15:10 10° S 13:19:34 65° E 13:21:48 27° NNE
deb Kosmos-1763 4.3 13:21:33 10° NNW 13:25:14 69° WSW 13:28:58 10° SSE
ARGOS Delta rocket 3.8 13:21:33 10° SSE 13:26:40 66° E 13:30:23 17° N
MOS 1 4.2 13:24:54 10° SSE 13:30:43 78° ENE 13:36:27 10° N
Sich 1 Rocket 4.3 13:27:19 10° S 13:31:25 34° ESE 13:31:43 33° E
SPOT 3 Rocket 3.7 13:27:03 10° SSE 13:32:06 47° E 13:34:07 32° NNE
SL-16 R/B 3.1 13:27:01 10° S 13:32:13 34° ESE 13:33:54 28° E
USA 215 4.1 13:28:29 20° E 13:32:37 40° SSE 13:38:41 10° SW
OAO 3 Rocket 3.6 13:28:56 10° WNW 13:33:20 40° N 13:33:58 38° NNE
ISS -0.8 13:33:07 10° SW 13:35:16 16° SSW 13:37:26 10° SSE
OAO 2 Rocket 3.7 13:32:42 10° WNW 13:37:19 40° N 13:37:49 38° NNE
Cosmos 2278 4.4 13:34:22 10° SSW 13:39:56 50° WNW 13:44:05 17° N
EO 1 Del DPAF 4.3 13:40:45 31° SE 13:40:45 31° SE 13:43:44 10° S
MTI 3.6 13:41:04 83° WNW 13:41:04 83° WNW 13:44:16 10° SSW
RESURS DK-1 2.4 13:37:14 10° SSW 13:41:23 58° ESE 13:41:51 54° E
MetOp-A 4.3 13:38:01 10° SSE 13:43:19 50° E 13:44:41 41° NE
SL-27 R/B 2.3 13:45:46 74° NW 13:46:01 81° WSW 13:49:32 10° SSE
CZ-4C R/B 3.7 13:45:44 10° SSW 13:50:00 21° SE 13:51:44 18° ESE
ARGOS 3.2 13:46:05 10° S 13:51:32 78° WSW 13:56:56 10° NNW
Thor Agena Rocket 3.5 13:55:33 53° ENE 13:56:19 60° ESE 14:01:22 10° S
Cosmos 773 Rocket 4.0 13:53:41 10° SSW 13:59:05 85° WNW 14:00:31 50° N
USA 186 4.1 13:58:29 10° SSW 14:00:11 16° WSW 14:00:39 16° W
Cosmos 2333 Rocket 4.4 13:59:18 10° SSE 14:01:09 11° SE 14:02:36 11° ESE
Cosmos 1975 3.1 13:58:56 10° S 14:02:33 60° SE 14:02:33 60° SE
Cosmos 1743 3.0 13:59:34 10° SSW 14:03:32 64° W 14:03:45 63° WNW
Cosmos 1461 2.8 14:00:23 10° SSW 14:04:23 80° SW 14:04:23 80° SW
Mayak -0.6 14:07:16 46° SE 14:07:16 46° SE 14:10:41 10° S
Cosmos 1184 Rocket 4.0 14:05:50 10° SSW 14:08:15 42° SSW 14:08:15 42° SSW
Cosmos 405 Rocket 4.0 14:07:22 10° SSW 14:10:58 36° W 14:11:40 34° WNW
ATLAS 5 CENTAUR R/B 4.3 14:05:13 10° WNW 14:11:32 34° SW 14:17:23 10° SSE
Cosmos 2322 Rocket 2.2 14:09:11 10° SSW 14:14:49 60° ESE 14:15:13 59° E
Okean 3 4.4 14:21:25 40° SSE 14:21:25 40° SSE 14:24:13 10° S
Meteor 2-9 Rocket 4.1 14:15:14 10° S 14:21:09 88° E 14:21:53 70° NNE
Cosmos 923 Rocket 4.5 14:16:52 10° S 14:21:36 47° SE 14:21:36 47° SE
Nadezhda 4 Rocket 4.4 14:19:41 20° NNW 14:24:08 62° W 14:30:28 10° S
Cosmos 2285 Rocket 4.0 14:21:20 34° NNW 14:24:26 89° WSW 14:30:59 10° SSE
Cosmos 2219 Rocket 4.2 14:23:51 10° SSE 14:27:15 16° SE 14:27:35 16° SE
H-2A R/B 3.9 14:25:28 10° S 14:29:42 28° WSW 14:33:59 10° NW
Cosmos 2026 Rocket 3.8 14:31:14 69° E 14:31:14 69° E 14:37:18 10° SSE
ATLAS CENTAUR R/B 4.2 14:31:51 10° SSE 14:33:09 11° SE 14:33:19 11° SE
Cosmos 2360 Rocket 2.7 14:36:26 10° SSW 14:41:29 50° SE 14:41:29 50° SE
Resurs 01 Rocket 2.5 14:42:02 10° S 14:46:01 48° SW 14:46:01 48° SW
Spot 2 Rocket 4.4 14:41:55 10° SSE 14:45:17 41° SSE 14:45:17 41° SSE
Okean 2 Rocket 4.0 14:43:12 10° SSW 14:46:47 48° SW 14:46:47 48° SW
Cosmos 1980 Rocket 4.4 14:44:31 10° WSW 14:48:10 18° W 14:50:40 13° NW
SJ 16-02 3.8 14:52:43 15° SSE 14:52:43 15° SSE 14:53:28 10° SSE
Meteor 1-12 Rocket 4.4 14:48:48 10° SSW 14:54:18 74° SW 14:54:18 74° SW
Cosmos 1680 Rocket 4.1 14:52:52 10° SSW 14:57:03 54° S 14:57:03 54° S
COSMOS 2428 4.3 14:55:44 10° S 14:59:47 25° SE 14:59:47 25° SE
Terra 4.3 15:04:24 10° SSE 15:05:07 14° SE 15:05:07 14° SE
ISS -0.2 15:11:08 10° SSW 15:11:23 11° SSW 15:11:23 11° SSW
USA 215 3.3 15:15:50 68° WNW 15:15:50 68° WNW 15:21:56 10° SW
SL-16 R/B 3.4 15:11:08 10° SW 15:15:46 35° W 15:15:46 35° W
CZ-4C R/B 3.5 15:33:44 10° SW 15:36:54 34° SW 15:36:54 34° SW
Mayak 1.8 15:43:51 11° WSW 15:43:51 11° WSW 15:44:19 10° WSW
Cosmos 2333 Rocket 3.4 15:40:50 10° SSW 15:44:35 40° S 15:44:35 40° S
Cosmos 2322 Rocket 4.4 15:54:31 10° WSW 15:57:02 17° W 15:57:02 17° W
Cosmos 2237 Rocket 3.9 16:02:35 10° S 16:05:54 27° SSE 16:05:54 27° SSE
Cosmos 2219 Rocket 3.7 16:06:15 10° SSW 16:09:17 33° SSW 16:09:17 33° SSW
ATLAS CENTAUR R/B 4.3 16:08:20 10° SSW 16:09:29 18° SSW 16:09:29 18° SSW
Cosmos 2360 Rocket 4.4 16:21:19 10° SW 16:23:14 17° WSW 16:23:14 17° WSW
SJ 16-02 4.4 16:29:40 12° SW 16:29:40 12° SW 16:30:27 10° SSW
Cosmos 2297 Rocket 4.3 16:41:28 20° SE 16:41:28 20° SE 16:43:14 10° SSE
Terra 4.3 16:42:22 10° SSW 16:44:00 18° SSW 16:44:00 18° SSW
SL-16 R/B 4.1 16:47:54 10° S 16:51:08 25° SSE 16:51:08 25° SSE
Cosmos 2227 Rocket 4.1 16:59:10 24° SSE 16:59:10 24° SSE 17:01:20 10° SSE
CZ-2D R/B 3.9 17:23:51 29° S 17:23:51 29° S 17:26:32 10° S
ADEOS II 4.1 17:35:08 23° SE 17:35:08 23° SE 17:37:56 10° S
Cosmos 2263 Rocket 4.4 17:49:04 17° ESE 17:49:04 17° ESE 17:50:57 10° SE
Resurs 1-4 Rocket 4.1 17:56:24 23° SSW 17:56:24 23° SSW 17:58:25 10° SSW
Cosmos 2297 Rocket 4.2 18:23:16 21° SW 18:23:16 21° SW 18:26:29 10° S
SL-16 R/B 4.4 18:31:46 10° SW 18:32:58 16° SW 18:32:58 16° SW
Cosmos 2227 Rocket 4.3 18:40:58 18° SW 18:40:58 18° SW 18:44:12 10° S
NOSS 3-2 (C) 4.0 18:45:46 81° ENE 18:45:46 81° ENE 18:53:28 10° SE
NOSS 3-2 (A) 4.0 18:45:57 74° WSW 18:46:00 74° SW 18:53:40 10° SSE
Cosmos 1943 3.9 18:50:35 10° SSW 18:55:07 51° SSE 18:55:07 51° SSE
FALCON 9 R/B 4.2 18:59:59 32° NE 19:00:17 32° NE 19:14:27 10° E
Cosmos 2074 Rocket 4.4 19:02:56 55° SSW 19:02:56 55° SSW 19:08:06 10° S
Cosmos 2184 Rocket 4.4 19:10:22 53° SW 19:10:22 53° SW 19:15:39 10° S
IDEFIX/ARIANE 42P 3.1 19:12:17 55° ESE 19:12:17 55° ESE 19:17:09 10° S
ADEOS II 3.9 19:16:04 21° SW 19:16:04 21° SW 19:17:57 10° SSW
USA 234 3.1 19:06:53 10° SE 19:13:32 80° NE 19:13:37 80° NNE
Meteor 1-21 Rocket 4.5 19:14:25 65° SSE 19:14:25 65° SSE 19:19:11 10° S
CENTAUR R/B 2.8 19:16:15 76° WNW 19:16:56 84° SW 19:24:04 10° SSE
Meteor 2-10 Rocket 4.2 19:11:31 10° S 19:17:21 58° ESE 19:18:00 55° ENE
SL-16 R/B 2.7 19:16:31 10° SSE 19:22:42 61° ENE 19:23:26 57° NE
Cosmos 2154 Rocket 4.0 19:23:32 73° WSW 19:23:32 73° WSW 19:29:42 10° S
ATLAS 3B R/B 2.8 19:22:34 68° N 19:23:25 76° ENE 19:30:54 10° SE
Cosmos-2242 4.4 19:18:57 10° S 19:21:43 36° S 19:21:43 36° S
Cosmos 1371 Rocket 4.3 19:26:32 67° SSE 19:26:32 67° SSE 19:31:07 10° SSE
ERS-2 4.3 19:22:29 10° SE 19:24:32 25° ESE 19:24:32 25° ESE
Cosmos 1844 Rocket 3.8 19:28:41 32° NE 19:29:41 34° ENE 19:34:46 10° SE
ARIANE 5 R/B 4.4 19:32:59 20° SW 19:32:59 20° SW 19:34:51 10° SSW
BREEZE-M DEB (TANK) 3.8 19:29:35 41° SSW 19:30:08 43° S 19:39:48 10° ESE
Cosmos 2263 Rocket 2.7 19:30:46 47° SW 19:30:46 47° SW 19:35:40 10° SSE
Cosmos 2341 Rocket 4.1 19:29:35 64° NNE 19:30:30 74° E 19:36:57 10° S
BREEZE M DEB (TANK) 3.5 19:32:00 53° SSW 19:32:00 53° SSW 19:35:07 10° SE
Cosmos 967 Rocket 4.3 19:27:51 10° SSW 19:33:53 78° W 19:33:53 78° W
Cosmos 1295 Rocket 4.3 19:34:40 77° WNW 19:34:50 78° W 19:41:14 10° S
Nadezhda 3 Rocket 4.0 19:34:25 10° SSW 19:40:07 60° WSW 19:40:07 60° WSW
ADEOS 4.0 19:41:48 40° NE 19:43:33 62° ESE 19:48:47 10° S
Cosmos 1624 Rocket 4.0 19:44:25 72° SW 19:44:25 72° SW 19:49:32 10° SSE
Cosmos 1023 Rocket 4.4 19:46:53 10° SSW 19:52:09 89° ESE 19:52:36 75° NNE
Lacrosse 5 rocket 2.7 19:55:37 30° ENE 19:55:37 30° ENE 19:58:33 10° ESE
MSX 3.7 19:55:01 55° N 19:56:23 83° WNW 20:02:16 10° SSW
Cosmos 1455 4.3 19:54:36 10° SSW 19:56:00 20° SSW 19:56:00 20° SSW
Exosat Rocket 4.1 19:55:13 10° SSW 20:00:38 56° ESE 20:05:33 10° NE
Cosmos 2056 Rocket 3.8 20:05:56 48° WSW 20:05:56 48° WSW 20:10:56 10° S
UNK 4.4 20:03:28 10° S 20:07:32 43° SW 20:07:32 43° SW
PSLV R/B 3.8 20:10:32 54° SW 20:10:32 54° SW 20:14:10 10° SSW
CZ-2C R/B 2.5 20:07:55 27° NNE 20:10:29 71° ESE 20:15:11 10° S
Cosmos 1140 Rocket 3.4 20:09:01 10° SSW 20:14:10 59° WNW 20:14:27 58° WNW
USA 32 4.0 20:14:24 57° NW 20:15:09 64° W 20:20:27 10° S
Cosmos 407 Rocket 4.4 20:15:13 10° SW 20:18:52 32° WSW 20:18:52 32° WSW
Cosmos 1954 Rocket 3.9 20:15:05 10° SSW 20:20:24 78° WNW 20:24:23 18° N
CZ-4C R/B 4.0 20:22:30 10° SSE 20:25:47 41° E 20:26:53 31° NE
PAYLOAD A 4.1 20:24:19 31° N 20:26:58 67° WNW 20:32:28 10° SSW
SeaSat 1 2.4 20:24:53 10° SSE 20:29:52 77° WSW 20:31:32 42° NW
Cosmos 1076 Rocket 4.1 20:31:13 21° NNE 20:33:56 56° E 20:38:10 10° SSE
STARLINK-43 3.5 20:37:12 52° WSW 20:37:44 59° SW 20:41:29 10° SE
Abrixas rocket 4.3 20:36:58 15° SSW 20:38:37 22° S 20:41:08 10° ESE
Cosmos 2058 3.5 20:36:53 18° NNE 20:39:44 57° E 20:43:50 10° SSE
Cosmos 371 Rocket 3.6 20:36:56 24° N 20:39:49 65° ENE 20:44:42 10° SSE
H-2A R/B 1.9 20:37:05 10° SSE 20:41:23 85° WSW 20:43:21 32° NNW
STARLINK-80 3.5 20:41:31 47° NNW 20:42:25 67° NE 20:46:17 10° SE
STARLINK-26 4.5 20:43:13 27° NNE 20:44:13 32° NE 20:47:26 10° ESE
Cosmos 1420 Rocket 4.5 20:43:40 33° WNW 20:45:23 44° WSW 20:50:27 10° S
Cosmos 1452 Rocket 3.6 20:43:20 33° NW 20:45:34 60° WSW 20:50:53 10° SSE
Cosmos 1842 Rocket 3.7 20:42:18 10° SSW 20:46:38 53° W 20:48:35 30° NNW
Meteor 1-28 Rocket 3.5 20:43:25 10° SSE 20:47:17 66° E 20:49:54 19° N
SL-4 R/B 4.4 20:46:04 10° SSW 20:48:16 16° S 20:50:29 10° SE
Cosmos 2366 rocket 4.3 20:46:04 28° NW 20:48:58 48° WSW 20:54:58 10° S
H-2A R/B 2.5 20:45:33 10° N 20:49:59 80° WNW 20:54:23 10° SSW
Cosmos 332 Rocket 4.2 20:47:00 16° N 20:50:51 64° ENE 20:55:48 10° SSE
IDEFIX/ARIANE 42P 4.2 20:53:07 16° WSW 20:53:07 16° WSW 20:55:23 10° SW
GENESIS II 4.1 20:52:42 40° WNW 20:53:52 65° SW 20:57:39 10° SSE
Cosmos 1741 Rocket 4.1 20:48:57 10° SSW 20:54:15 81° ESE 20:59:30 10° NNE
Landsat 5 3.7 20:49:57 10° SSE 20:54:23 80° ENE 20:58:11 14° N
Cosmos 1437 4.2 20:55:30 22° SW 20:55:30 22° SW 20:57:31 10° SSW
Cosmos 1484 Rocket 3.1 20:50:59 10° NNE 20:54:59 70° ESE 20:58:59 10° S
Cosmos 1867 3.5 20:52:12 26° NW 20:55:19 83° WSW 21:00:46 10° SSE
CZ-4B R/B 4.0 20:51:09 10° N 20:55:34 70° WNW 20:59:52 10° SSW
USA 234 4.2 20:50:11 10° SE 20:56:08 37° SSW 21:00:57 15° W
Cosmos 2221 2.6 20:52:03 10° SSW 20:56:18 54° W 20:59:23 18° NNW
ERS-2 4.0 20:56:43 10° SSW 20:59:09 17° WSW 20:59:09 17° WSW
Cosmos 1818 3.6 20:54:47 10° SW 21:00:05 55° WNW 21:05:21 10° NNE
SL-08 R/B 3.7 20:58:54 10° S 21:03:31 44° WSW 21:06:06 23° NW
FENGYUN 3A 4.0 21:00:05 10° NNE 21:05:29 71° ESE 21:10:57 10° S
SL-16 R/B 3.8 21:01:07 10° SSW 21:05:47 23° WSW 21:08:31 17° W
Cosmos 1869 3.3 21:01:47 10° SSW 21:05:55 65° W 21:09:57 10° N
SJ-12 4.4 21:02:10 10° NNE 21:06:18 64° ESE 21:10:28 10° S
Cosmos 1400 Rocket 3.5 21:03:53 10° S 21:07:47 56° E 21:11:39 10° NNE
CENTAUR R/B 4.2 21:03:26 13° W 21:08:28 23° SW 21:13:48 10° SSE
Cosmos 2151 3.8 21:05:23 10° N 21:09:31 52° E 21:13:41 10° SSE
COSMOS 2406 3.9 21:05:34 10° SSW 21:11:19 59° ESE 21:16:59 10° NE
STARLINK-1205 3.1 21:12:05 33° WNW 21:12:33 37° NW 21:15:04 10° NNE
Cosmos 1844 Rocket 3.5 21:10:22 20° WNW 21:13:31 34° WSW 21:18:41 10° S
STARLINK-1220 3.1 21:13:47 31° WNW 21:14:24 35° NW 21:16:54 10° NNE
STARLINK-1105 3.1 21:13:51 31° WNW 21:14:27 35° NW 21:16:57 10° NNE
STARLINK-1208 3.1 21:13:55 31° WNW 21:14:31 35° NW 21:17:00 10° NNE
STARLINK-1199 3.1 21:13:57 31° WNW 21:14:33 35° NW 21:17:03 10° NNE
STARLINK-1212 3.1 21:14:01 30° WNW 21:14:37 35° NW 21:17:08 10° NNE
STARLINK-1206 3.1 21:14:01 30° WNW 21:14:37 35° NW 21:17:08 10° NNE
STARLINK-1226 3.1 21:14:02 30° WNW 21:14:37 35° NW 21:17:08 10° NNE
STARLINK-1210 3.1 21:14:02 30° WNW 21:14:39 35° NW 21:17:08 10° NNE
STARLINK-1227 3.1 21:14:02 30° WNW 21:14:39 35° NW 21:17:09 10° NNE
STARLINK-1231 3.2 21:14:05 30° WNW 21:14:42 35° NW 21:17:12 10° NNE
STARLINK-1217 3.2 21:14:05 30° WNW 21:14:42 35° NW 21:17:12 10° NNE
STARLINK-1254 3.2 21:14:05 30° WNW 21:14:43 35° NW 21:17:12 10° NNE
STARLINK-1235 3.2 21:14:06 30° WNW 21:14:43 35° NW 21:17:14 10° NNE
STARLINK-1271 3.2 21:14:06 30° WNW 21:14:44 35° NW 21:17:14 10° NNE
STARLINK-1270 3.2 21:14:07 30° WNW 21:14:45 35° NW 21:17:15 10° NNE
STARLINK-1247 3.2 21:14:09 30° WNW 21:14:47 35° NW 21:17:16 10° NNE
STARLINK-1229 3.2 21:14:10 30° WNW 21:14:47 35° NW 21:17:17 10° NNE
STARLINK-1218 3.2 21:14:09 30° WNW 21:14:47 35° NW 21:17:17 10° NNE
STARLINK-1238 3.2 21:14:11 30° WNW 21:14:47 35° NW 21:17:18 10° NNE
STARLINK-1215 3.2 21:14:11 30° WNW 21:14:49 35° NW 21:17:19 10° NNE
STARLINK-1234 3.2 21:14:12 30° WNW 21:14:51 35° NW 21:17:21 10° NNE
STARLINK-1187 3.2 21:14:14 30° WNW 21:14:52 35° NW 21:17:21 10° NNE
STARLINK-1219 3.2 21:14:14 30° WNW 21:14:52 35° NW 21:17:21 10° NNE
STARLINK-1232 3.2 21:14:14 30° WNW 21:14:52 35° NW 21:17:22 10° NNE
STARLINK-1154 3.2 21:14:15 30° WNW 21:14:53 35° NW 21:17:23 10° NNE
ATLAS 3B R/B 4.0 21:09:50 15° W 21:14:54 29° SW 21:21:15 10° SSE
STARLINK-1197 3.2 21:14:18 30° WNW 21:14:55 35° NW 21:17:24 10° NNE
STARLINK-1191 3.2 21:14:18 30° WNW 21:14:56 34° NW 21:17:25 10° NNE
STARLINK-1211 3.2 21:14:19 30° WNW 21:14:56 34° NW 21:17:26 10° NNE
STARLINK-1222 3.2 21:14:20 30° WNW 21:14:57 34° NW 21:17:26 10° NNE
STARLINK-1189 3.2 21:14:20 30° WNW 21:14:57 34° NW 21:17:27 10° NNE
STARLINK-1198 3.2 21:14:21 30° WNW 21:14:59 34° NW 21:17:30 10° NNE
STARLINK-1188 3.2 21:14:21 30° WNW 21:14:59 34° NW 21:17:29 10° NNE
STARLINK-1245 3.2 21:14:23 30° WNW 21:15:01 34° NW 21:17:30 10° NNE
STARLINK-1214 3.2 21:14:23 30° WNW 21:15:01 34° NW 21:17:30 10° NNE
STARLINK-1221 3.2 21:14:24 30° WNW 21:15:02 34° NW 21:17:32 10° NNE
STARLINK-1233 3.2 21:14:24 30° WNW 21:15:03 34° NW 21:17:33 10° NNE
STARLINK-1204 3.2 21:14:31 30° WNW 21:15:09 34° NW 21:17:39 10° NNE
STARLINK-1201 3.2 21:14:34 30° WNW 21:15:13 34° NW 21:17:42 10° NNE
STARLINK-1228 3.2 21:14:34 30° WNW 21:15:13 34° NW 21:17:42 10° NNE
STARLINK-1203 3.2 21:15:30 28° W 21:16:17 34° NW 21:18:47 10° NNE
Lacrosse 4 Rocket 4.3 21:15:06 10° NE 21:17:24 14° ENE 21:19:40 10° ESE
[s.n.71209] 3.3 21:17:44 26° W 21:18:34 31° NW 21:21:02 10° NNE
CZ-4B R/B 1.7 21:15:36 10° SSE 21:18:53 62° E 21:22:02 10° N
ATLAS 5 CENTAUR R/B 1.9 21:14:02 10° SSW 21:19:24 79° SE 21:23:57 10° NE
In-Cosmos 22 Rocket 4.3 21:14:07 10° NNW 21:19:52 70° W 21:25:47 10° S
PSLV R/B 3.9 21:15:50 10° NNE 21:19:55 85° W 21:24:07 10° SSW
STARLINK-1246 3.4 21:19:27 23° W 21:20:32 31° NW 21:23:02 10° NNE
ALOS 2.2 21:17:58 10° N 21:22:40 82° WNW 21:27:27 10° SSW
STARLINK-1241 3.5 21:21:51 21° W 21:23:05 29° NW 21:25:34 10° NNE
STARLINK-1239 3.5 21:22:08 21° W 21:23:22 29° NW 21:25:51 10° NNE
STARLINK-1240 3.5 21:22:26 20° W 21:23:42 28° NW 21:26:10 10° NNE
STARLINK-1216 3.5 21:22:43 20° W 21:23:59 28° NW 21:26:27 10° NNE
Meteor 1-31 Rocket 3.6 21:20:34 10° NNW 21:24:04 30° W 21:27:38 10° SSW
STARLINK-1237 3.6 21:23:06 20° W 21:24:24 28° NW 21:26:52 10° NNE
STARLINK-1202 3.6 21:23:17 20° W 21:24:33 28° NW 21:27:00 10° NNE
STARLINK-1224 3.6 21:24:16 19° W 21:25:37 27° NW 21:28:04 10° NNE
STARLINK-1225 3.6 21:24:33 19° W 21:25:55 27° NW 21:28:22 10° NNE
STARLINK-1230 3.6 21:24:54 18° W 21:26:17 27° NW 21:28:44 10° NNE
STARLINK-1243 3.7 21:25:11 18° W 21:26:35 27° NW 21:29:01 10° NNE
STARLINK-1236 3.7 21:25:36 18° W 21:27:00 26° NW 21:29:25 10° NNE
STARLINK-1269 3.7 21:26:16 18° W 21:27:43 26° NW 21:30:08 10° NNE
STARLINK-1200 3.7 21:26:34 18° W 21:27:59 26° NW 21:30:24 10° NNE
STARLINK-1192 3.7 21:26:58 17° W 21:28:25 25° NW 21:30:49 10° N
STARLINK-1244 3.7 21:27:19 17° W 21:28:49 25° NW 21:31:13 10° N
STARLINK-1138 3.7 21:27:40 17° W 21:29:08 25° NW 21:31:32 10° N
Cosmos 2082 Rocket 4.3 21:24:06 10° S 21:29:11 31° ESE 21:34:11 10° ENE
STARLINK-1143 3.8 21:28:01 17° W 21:29:31 25° NW 21:31:54 10° N
Okean O Rocket 2.5 21:26:10 10° NNE 21:30:26 54° ESE 21:34:48 10° S
Cosmos 1934 Rocket 4.1 21:25:11 10° N 21:31:34 90° W 21:37:57 10° S
SL-24 R/B - RUBIN 2 3.4 21:28:12 10° SW 21:32:26 67° WNW 21:36:40 10° NNE
Lacrosse 5 rocket 2.3 21:31:16 14° W 21:34:09 31° SW 21:37:37 10° SSE
Cosmos 1892 3.2 21:31:06 10° NNW 21:34:47 42° WSW 21:38:33 10° S
STARLINK-48 3.6 21:33:30 14° WNW 21:36:48 68° SW 21:40:46 10° SE
Meteor PRIRODA 4.3 21:34:04 10° NNW 21:37:25 34° W 21:40:51 10° SSW
Cosmos 1833 Rocket 3.6 21:32:30 10° SSW 21:38:03 54° ESE 21:43:35 10° NE
CZ-4B DEB 4.2 21:34:40 10° N 21:40:07 69° WNW 21:45:41 10° SSW
CZ-4B R/B 3.4 21:38:17 10° NNE 21:43:41 82° ESE 21:49:16 10° SSW
DELTA 2 R/B(2) 3.7 21:42:17 10° W 21:46:00 69° N 21:47:50 10° ENE
Cosmos 1821 Rocket 4.5 21:40:39 10° NNW 21:46:36 43° WSW 21:52:43 10° S
CZ-4B R/B 4.2 21:45:58 10° NW 21:48:50 19° W 21:51:49 10° SW
CZ-2C R/B 4.2 21:47:38 10° WNW 21:49:10 11° W 21:50:43 10° WSW
Cosmos 1408 Rocket 3.8 21:50:44 10° N 21:55:14 84° E 21:59:48 10° S
H-2A R/B 3.9 21:54:05 10° NNE 21:57:42 48° ESE 22:01:24 10° S
Cosmos 1605 Rocket 4.0 21:54:34 10° N 22:00:41 82° W 22:06:56 10° S
SMAP 4.2 21:56:22 10° NNE 22:00:54 52° ESE 22:05:30 10° S
Cosmos 2278 Rocket 2.4 21:57:20 10° NW 22:02:57 59° WSW 22:08:38 10° SSE
